Location: Newark
(25.6108°S, 54.5803°W)
Time: 05:39:36
(UTC+00:00)

deb Explorer IX - Pass Details

Date: 28 October 2020
Orbit: 538 x 1104 km, 38.8° (Epoch: 29 November)

Event Time Altitude Azimuth Distance (km) Brightness Sun altitude
Rises 04:49:35 0° 268° (W) 2,708 - -45.7°
Reaches altitude 10° 04:53:43 10° 308° (NW) 1,868 - -45.2°
Maximum altitude 04:54:33 11° 320° (NW) 1,852 - -45.1°
Drops below altitude 10° 04:55:25 10° 332° (NNW) 1,902 - -45.0°
Sets 04:59:51 0° 11° (N) 2,925 - -44.4°
